N7QNM-13 Weather Reports


time (UTC)temp
C
wind
direction
speed
KPH
gust
KPH
rain 1hr
cm
rain 24hr
cm
rain mn
cm
humidity
%
barometer
mb
20260831042537 16 0.0 0.0 0.00 0.00 0.00 56 1014.8
20260831041537 16 0.0 0.0 0.00 0.00 0.00 55 1014.8
20260831040537 17 0.0 0.0 0.00 0.00 0.00 50 1014.7
20260831035537 17 0.0 0.0 0.00 0.00 0.00 49 1014.7
20260831034539 17 0.0 0.0 0.00 0.00 0.00 48 1014.6
20260831033539 18 0.0 0.0 0.00 0.00 0.00 45 1014.5
20260831032539 18 132 6.4 8.0 0.00 0.00 0.00 44 1014.4
20260831031538 19 145 9.7 11.3 0.00 0.00 0.00 42 1014.3
20260831030558 20 149 6.4 8.0 0.00 0.00 0.00 40 1014.3
20260831025559 21 136 6.4 9.7 0.00 0.00 0.00 38 1014.3
20260831024538 22 181 4.8 6.4 0.00 0.00 0.00 35 1014.1
20260831023600 23 0.0 0.0 0.00 0.00 0.00 39 1014.1
20260831022540 26 0.0 0.0 0.00 0.00 0.00 35 1014.0
20260831021538 27 270 3.2 3.2 0.00 0.00 0.00 33 1014.0
20260831020538 28 0.0 0.0 0.00 0.00 0.00 29 1014.0
20260831015539 29 0.0 0.0 0.00 0.00 0.00 26 1014.1
20260831014539 30 270 3.2 3.2 0.00 0.00 0.00 23 1014.0
20260831013540 30 250 3.2 4.8 0.00 0.00 0.00 24 1014.1
20260831012539 30 245 1.6 4.8 0.00 0.00 0.00 25 1014.1
20260831011539 30 283 3.2 4.8 0.00 0.00 0.00 21 1014.1
20260831010541 30 23 0.0 3.2 0.00 0.00 0.00 20 1014.2
20260831005601 30 250 3.2 6.4 0.00 0.00 0.00 24 1014.4
20260831004541 30 331 3.2 4.8 0.00 0.00 0.00 21 1014.3
20260831003539 30 270 1.6 4.8 0.00 0.00 0.00 21 1014.3
20260831002600 28 309 1.6 4.8 0.00 0.00 0.00 23 1014.4
20260831001541 28 291 3.2 6.4 0.00 0.00 0.00 22 1014.4
20260831000540 28 326 3.2 4.8 0.00 0.00 0.00 23 1014.5
20260830235541 28 319 4.8 8.0 0.00 0.00 0.00 24 1014.6
20260830234540 28 338 4.8 8.0 0.00 0.00 0.00 26 1014.7
20260830233540 28 293 4.8 14.5 0.00 0.00 0.00 26 1014.8
20260830232541 28 279 6.4 8.0 0.00 0.00 0.00 27 1014.9
20260830231540 27 302 4.8 8.0 0.00 0.00 0.00 29 1015.0
20260830230540 26 99 3.2 6.4 0.00 0.00 0.00 30 1015.0
20260830225541 27 34 4.8 9.7 0.00 0.00 0.00 29 1015.1
20260830224542 27 38 6.4 9.7 0.00 0.00 0.00 29 1015.2
20260830223543 27 304 6.4 8.0 0.00 0.00 0.00 29 1015.4
20260830222541 27 8 3.2 9.7 0.00 0.00 0.00 29 1015.5
20260830221541 26 0 6.4 9.7 0.00 0.00 0.00 29 1015.5
20260830220541 26 321 6.4 9.7 0.00 0.00 0.00 30 1015.6
20260830215541 26 337 6.4 11.3 0.00 0.00 0.00 31 1015.8
20260830214542 26 335 6.4 9.7 0.00 0.00 0.00 30 1016.0
20260830213543 26 341 8.0 11.3 0.00 0.00 0.00 32 1016.1
20260830212542 26 19 9.7 11.3 0.00 0.00 0.00 32 1016.1
20260830211542 26 355 4.8 9.7 0.00 0.00 0.00 32 1016.2
20260830210544 25 73 6.4 9.7 0.00 0.00 0.00 34 1016.2
20260830205544 25 340 6.4 9.7 0.00 0.00 0.00 34 1016.2
20260830204604 25 334 8.0 12.9 0.00 0.00 0.00 33 1016.3
20260830203542 24 334 6.4 9.7 0.00 0.00 0.00 35 1016.4
20260830202544 24 20 6.4 8.0 0.00 0.00 0.00 37 1016.5
20260830201542 23 55 9.7 14.5 0.00 0.00 0.00 37 1016.5
20260830200543 23 20 4.8 6.4 0.00 0.00 0.00 36 1016.6
20260830195543 23 25 8.0 11.3 0.00 0.00 0.00 37 1016.8
20260830194543 23 85 4.8 8.0 0.00 0.00 0.00 38 1017.0
20260830193543 23 308 6.4 9.7 0.00 0.00 0.00 38 1017.0
20260830192543 23 305 6.4 8.0 0.00 0.00 0.00 38 1017.2
20260830191543 23 344 6.4 14.5 0.00 0.00 0.00 38 1017.3
20260830190543 23 244 8.0 12.9 0.00 0.00 0.00 39 1017.4
20260830185605 23 12 6.4 9.7 0.00 0.00 0.00 38 1017.4
20260830184545 22 173 6.4 9.7 0.00 0.00 0.00 40 1017.6
20260830183545 22 134 4.8 8.0 0.00 0.00 0.00 41 1017.6
20260830182544 21 15 9.7 11.3 0.00 0.00 0.00 42 1017.7
20260830181546 21 342 1.6 8.0 0.00 0.00 0.00 42 1017.8
20260830180546 21 331 6.4 9.7 0.00 0.00 0.00 42 1017.8
20260830175606 21 20 8.0 9.7 0.00 0.00 0.00 44 1017.8
20260830174544 21 336 3.2 8.0 0.00 0.00 0.00 41 1017.9
20260830173545 21 354 6.4 8.0 0.00 0.00 0.00 42 1017.9
20260830172605 21 347 4.8 6.4 0.00 0.00 0.00 41 1018.0
20260830171545 21 3 4.8 8.0 0.00 0.00 0.00 42 1018.0
20260830170546 21 147 3.2 4.8 0.00 0.00 0.00 43 1018.1
20260830165546 20 181 1.6 3.2 0.00 0.00 0.00 45 1018.2
20260830164545 19 247 3.2 6.4 0.00 0.00 0.00 47 1018.3
20260830163547 19 277 4.8 8.0 0.00 0.00 0.00 48 1018.4
20260830162545 18 293 3.2 6.4 0.00 0.00 0.00 51 1018.5
20260830161607 17 291 3.2 4.8 0.00 0.00 0.00 55 1018.6
20260830160546 16 267 4.8 6.4 0.00 0.00 0.00 56 1018.6
20260830155546 15 328 1.6 4.8 0.00 0.00 0.00 67 1018.6
20260830154546 14 315 1.6 4.8 0.00 0.00 0.00 72 1018.6
20260830153546 13 347 1.6 3.2 0.00 0.00 0.00 75 1018.5
20260830152546 13 301 0.0 3.2 0.00 0.00 0.00 77 1018.6
20260830151553 12 273 3.2 6.4 0.00 0.00 0.00 80 1018.6
20260830150546 12 258 1.6 3.2 0.00 0.00 0.00 86 1018.5
20260830145546 12 338 0.0 1.6 0.00 0.00 0.00 91 1018.5
20260830144548 11 0.0 0.0 0.00 0.00 0.00 93 1018.5
20260830143547 10 293 0.0 3.2 0.00 0.00 0.00 93 1018.5
20260830142548 9 0.0 0.0 0.00 0.00 0.00 93 1018.4
20260830141547 8 0.0 0.0 0.00 0.00 0.00 93 1018.3
20260830140547 7 0.0 0.0 0.00 0.00 0.00 92 1018.3
20260830135547 6 0.0 0.0 0.00 0.00 0.00 91 1018.2
20260830134548 5 0.0 0.0 0.00 0.00 0.00 90 1018.1
20260830133608 5 0.0 0.0 0.00 0.00 0.00 89 1018.0
20260830132548 5 0.0 0.0 0.00 0.00 0.00 89 1018.0
20260830131548 5 0.0 0.0 0.00 0.00 0.00 89 1018.0
20260830130547 5 0.0 0.0 0.00 0.00 0.00 89 1018.1
20260830125548 5 0.0 0.0 0.00 0.00 0.00 88 1018.1
20260830124548 5 0.0 0.0 0.00 0.00 0.00 88 1017.9
20260830123549 5 0.0 0.0 0.00 0.00 0.00 88 1017.8
20260830122610 5 0.0 0.0 0.00 0.00 0.00 87 1017.8
20260830121548 6 0.0 0.0 0.00 0.00 0.00 87 1017.8
20260830120548 5 0.0 0.0 0.00 0.00 0.00 87 1017.8
20260830115609 5 0.0 0.0 0.00 0.00 0.00 86 1017.8
20260830114550 6 0.0 0.0 0.00 0.00 0.00 86 1017.8
20260830113549 6 0.0 0.0 0.00 0.00 0.00 86 1017.7
20260830112549 6 0.0 0.0 0.00 0.00 0.00 85 1017.7
20260830111611 6 0.0 0.0 0.00 0.00 0.00 85 1017.7
20260830110609 6 0.0 0.0 0.00 0.00 0.00 85 1017.7
20260830105549 6 0.0 0.0 0.00 0.00 0.00 85 1017.6
20260830104550 6 0.0 0.0 0.00 0.00 0.00 83 1017.6
20260830103609 6 0.0 0.0 0.00 0.00 0.00 83 1017.6
20260830102549 6 0.0 0.0 0.00 0.00 0.00 82 1017.6
20260830101551 6 0.0 0.0 0.00 0.00 0.00 81 1017.6
20260830100551 7 0 1.6 4.8 0.00 0.00 0.00 81 1017.4
20260830095549 7 0.0 0.0 0.00 0.00 0.00 80 1017.4
20260830094550 7 0.0 0.0 0.00 0.00 0.00 79 1017.3
20260830093550 7 264 1.6 6.4 0.00 0.00 0.00 78 1017.3
20260830092612 7 0.0 0.0 0.00 0.00 0.00 77 1017.2
20260830091552 8 203 0.0 1.6 0.00 0.00 0.00 77 1017.2
20260830090612 8 0.0 0.0 0.00 0.00 0.00 75 1017.2
20260830085632 8 0.0 0.0 0.00 0.00 0.00 74 1017.2
20260830084552 9 190 1.6 6.4 0.00 0.00 0.00 75 1017.1
20260830083552 8 181 4.8 6.4 0.00 0.00 0.00 75 1017.2
20260830082551 9 186 1.6 4.8 0.00 0.00 0.00 75 1017.2
20260830081552 9 184 6.4 8.0 0.00 0.00 0.00 75 1017.2
20260830080551 9 185 1.6 4.8 0.00 0.00 0.00 75 1017.1
20260830075553 9 0.0 0.0 0.00 0.00 0.00 75 1017.2
20260830074551 10 0.0 0.0 0.00 0.00 0.00 73 1017.2
20260830073551 10 110 0.0 3.2 0.00 0.00 0.00 71 1017.1
20260830072553 10 114 3.2 4.8 0.00 0.00 0.00 71 1017.1
20260830071551 11 0.0 0.0 0.00 0.00 0.00 67 1017.1
20260830070612 11 0.0 0.0 0.00 0.00 0.00 65 1016.9
20260830065552 11 0.0 0.0 0.00 0.00 0.00 63 1016.9
20260830064552 12 259 3.2 6.4 0.00 0.00 0.00 62 1016.8
20260830063554 12 274 3.2 6.4 0.00 0.00 0.00 60 1016.8
20260830062552 12 247 1.6 4.8 0.00 0.00 0.00 57 1016.8
20260830061552 13 273 1.6 3.2 0.00 0.00 0.00 56 1016.9
20260830060552 13 260 3.2 4.8 0.00 0.00 0.00 55 1016.9
20260830055554 14 269 3.2 6.4 0.00 0.00 0.00 54 1016.9
20260830054553 14 278 3.2 6.4 0.00 0.00 0.00 54 1017.0
20260830053614 14 262 4.8 8.0 0.00 0.00 0.00 53 1017.0
20260830052553 15 270 6.4 9.7 0.00 0.00 0.00 53 1017.0
20260830051553 15 265 4.8 8.0 0.00 0.00 0.00 52 1017.1
20260830050555 15 248 6.4 14.5 0.00 0.00 0.00 53 1017.1
20260830045635 15 252 8.0 11.3 0.00 0.00 0.00 54 1017.0
20260830044553 15 260 4.8 8.0 0.00 0.00 0.00 54 1017.0
20260830043553 16 268 3.2 6.4 0.00 0.00 0.00 53 1017.0